This is the latest recevied weather packets stored in our database for station/object N5XJB. If no packets are shown the sender has not sent any weather packets the latest 10 day(s).
| Time | Temp. | Humidity | Pressure | Rain* | Wind** | Luminosity | Snow |
|---|---|---|---|---|---|---|---|
| 1777835134 | 27.78° C | 37% | 1022.3 hPa | 0 mm | - | 884 W/m² | - |
| 1777834831 | 28.33° C | 35% | 1022 hPa | 0 mm | - | 892 W/m² | - |
| 1777834527 | 28.33° C | 35% | 1022.3 hPa | 0 mm | - | 896 W/m² | - |
| 1777834227 | 27.78° C | 36% | 1022.3 hPa | 0 mm | - | 921 W/m² | - |
| 1777833923 | 28.33° C | 35% | 1022.3 hPa | 0 mm | - | 929 W/m² | - |
| 1777833620 | 28.33° C | 35% | 1022.3 hPa | 0 mm | - | 898 W/m² | - |
| 1777833317 | 27.78° C | 39% | 1022.7 hPa | 0 mm | - | 905 W/m² | - |
| 1777833014 | 27.78° C | 34% | 1022.3 hPa | 0 mm | - | 906 W/m² | - |
| 1777832712 | 27.78° C | 36% | 1022.7 hPa | 0 mm | - | 907 W/m² | - |
| 1777832410 | 28.33° C | 36% | 1022.7 hPa | 0 mm | - | 905 W/m² | - |
| 1777832107 | 28.33° C | 37% | 1023 hPa | 0 mm | - | 905 W/m² | - |
| 1777831803 | 27.78° C | 36% | 1023 hPa | 0 mm | - | 902 W/m² | - |
| 1777831501 | 27.78° C | 36% | 1023 hPa | 0 mm | - | 900 W/m² | - |
| 1777831197 | 27.78° C | 36% | 1023 hPa | 0 mm | - | 890 W/m² | - |
| 1777830895 | 27.22° C | 35% | 1023 hPa | 0 mm | - | 900 W/m² | - |
| 1777830591 | 26.67° C | 35% | 1023.3 hPa | 0 mm | - | 895 W/m² | - |
| 1777830289 | 26.67° C | 36% | 1023.3 hPa | 0 mm | - | 891 W/m² | - |
| 1777829984 | 27.22° C | 36% | 1023.7 hPa | 0 mm | - | 884 W/m² | - |
| 1777829680 | 27.22° C | 35% | 1023.7 hPa | 0 mm | - | 881 W/m² | - |
| 1777829377 | 28.33° C | 37% | 1023.7 hPa | 0 mm | - | 882 W/m² | - |
| 1777829075 | 27.22° C | 38% | 1024 hPa | 0 mm | - | 870 W/m² | - |
| 1777828771 | 26.67° C | 37% | 1023.7 hPa | 0 mm | - | 862 W/m² | - |
| 1777828467 | 27.78° C | 38% | 1024 hPa | 0 mm | - | 865 W/m² | - |
| 1777828165 | 27.22° C | 39% | 1024 hPa | 0 mm | - | 852 W/m² | - |
| 1777827861 | 28.33° C | 38% | 1023.7 hPa | 0 mm | - | 842 W/m² | - |
* Rain latest hour (hover to see other rain measurements)
** Current wind speed in m/s (hover to see current wind gust speed)